Time,TemperatureF,DewpointF,PressureIn,WindDirection,WindDirectionDegrees,WindSpeedMPH,WindSpeedGustMPH,Humidity,HourlyPrecipIn,Conditions,Clouds,dailyrainin,SolarRadiationWatts/m^2,SoftwareType,DateUTC
2013-04-02 00:05:00,68.8,62.0,29.95,ENE,75,2.0,4.0,79,0.00,,,0.00,0,Wunderground v.1.15,2013-04-02 05:05:00,
2013-04-02 00:10:00,68.7,61.9,29.95,WSW,252,2.0,4.0,79,0.00,,,0.00,0,Wunderground v.1.15,2013-04-02 05:10:00,
2013-04-02 00:16:00,68.4,62.0,29.95,ENE,61,3.0,7.0,80,0.00,,,0.00,0,Wunderground v.1.15,2013-04-02 05:16:00,
2013-04-02 00:22:00,68.2,62.1,29.95,SE,136,2.0,3.0,81,0.00,,,0.00,0,Wunderground v.1.15,2013-04-02 05:22:00,
2013-04-02 00:27:00,68.0,62.3,29.95,SSW,202,2.0,3.0,82,0.00,,,0.00,0,Wunderground v.1.15,2013-04-02 05:27:00,
2013-04-02 00:33:00,67.7,62.3,29.95,WNW,298,1.0,3.0,83,0.00,,,0.00,0,Wunderground v.1.15,2013-04-02 05:33:00,
2013-04-02 00:39:00,67.6,62.3,29.95,SW,229,2.0,3.0,83,0.00,,,0.00,0,Wunderground v.1.15,2013-04-02 05:39:00,
2013-04-02 00:44:00,67.5,62.5,29.95,NNE,18,2.0,2.0,84,0.00,,,0.00,0,Wunderground v.1.15,2013-04-02 05:44:00,
2013-04-02 00:49:00,67.4,62.4,29.95,East,86,2.0,4.0,84,0.00,,,0.00,0,Wunderground v.1.15,2013-04-02 05:49:00,
2013-04-02 00:54:00,67.3,62.3,29.95,ESE,107,2.0,3.0,84,0.00,,,0.00,0,Wunderground v.1.15,2013-04-02 05:54:00,
2013-04-02 01:00:00,67.2,62.2,29.95,West,271,2.0,2.0,84,0.00,,,0.00,0,Wunderground v.1.15,2013-04-02 06:00:00,
2013-04-02 01:05:00,67.2,62.2,29.95,WSW,248,2.0,3.0,84,0.00,,,0.00,0,Wunderground v.1.15,2013-04-02 06:05:00,
2013-04-02 01:11:00,67.1,62.4,29.95,WNW,292,1.0,1.0,85,0.00,,,0.00,0,Wunderground v.1.15,2013-04-02 06:11:00,
2013-04-02 01:16:00,67.0,62.3,29.94,SW,223,2.0,3.0,85,0.00,,,0.00,0,Wunderground v.1.15,2013-04-02 06:16:00,
2013-04-02 01:21:00,66.9,62.2,29.94,South,181,1.0,2.0,85,0.00,,,0.00,0,Wunderground v.1.15,2013-04-02 06:21:00,
2013-04-02 01:26:00,66.8,62.1,29.95,ENE,75,1.0,2.0,85,0.00,,,0.00,0,Wunderground v.1.15,2013-04-02 06:26:00,
2013-04-02 01:31:00,66.7,62.0,29.94,SSE,166,1.0,1.0,85,0.00,,,0.00,0,Wunderground v.1.15,2013-04-02 06:31:00,
2013-04-02 01:37:00,66.7,62.0,29.94,NW,325,1.0,3.0,85,0.00,,,0.00,0,Wunderground v.1.15,2013-04-02 06:37:00,
2013-04-02 01:43:00,66.6,61.9,29.94,NW,304,2.0,4.0,85,0.00,,,0.00,0,Wunderground v.1.15,2013-04-02 06:43:00,
2013-04-02 01:49:00,66.4,62.1,29.94,ENE,76,1.0,4.0,86,0.00,,,0.00,0,Wunderground v.1.15,2013-04-02 06:49:00,
2013-04-02 01:55:00,66.4,62.1,29.93,SE,130,1.0,1.0,86,0.00,,,0.00,0,Wunderground v.1.15,2013-04-02 06:55:00,
2013-04-02 02:01:00,66.2,61.9,29.93,East,80,2.0,3.0,86,0.00,,,0.00,0,Wunderground v.1.15,2013-04-02 07:01:00,
2013-04-02 02:07:00,66.0,61.7,29.93,SSW,197,2.0,3.0,86,0.00,,,0.00,0,Wunderground v.1.15,2013-04-02 07:07:00,
2013-04-02 02:13:00,65.9,61.9,29.92,SSE,164,1.0,2.0,87,0.00,,,0.00,0,Wunderground v.1.15,2013-04-02 07:13:00,
2013-04-02 02:19:00,65.7,61.7,29.92,WSW,242,0.0,3.0,87,0.00,,,0.00,0,Wunderground v.1.15,2013-04-02 07:19:00,
2013-04-02 02:24:00,65.5,61.5,29.92,SSW,196,1.0,3.0,87,0.00,,,0.00,0,Wunderground v.1.15,2013-04-02 07:24:00,
2013-04-02 02:30:00,65.4,61.4,29.92,SSW,213,1.0,2.0,87,0.00,,,0.00,0,Wunderground v.1.15,2013-04-02 07:30:00,
2013-04-02 02:35:00,65.4,61.4,29.92,SSE,148,1.0,3.0,87,0.00,,,0.00,0,Wunderground v.1.15,2013-04-02 07:35:00,
2013-04-02 02:40:00,65.4,61.4,29.92,East,88,1.0,1.0,87,0.00,,,0.00,0,Wunderground v.1.15,2013-04-02 07:40:00,
2013-04-02 02:46:00,65.4,61.4,29.92,NNE,26,1.0,3.0,87,0.00,,,0.00,0,Wunderground v.1.15,2013-04-02 07:46:00,
2013-04-02 02:52:00,65.4,61.4,29.93,South,189,1.0,1.0,87,0.00,,,0.00,0,Wunderground v.1.15,2013-04-02 07:52:00,
2013-04-02 02:58:00,65.4,61.4,29.93,ENE,78,0.0,3.0,87,0.00,,,0.00,0,Wunderground v.1.15,2013-04-02 07:58:00,
2013-04-02 03:04:00,65.4,61.4,29.93,ENE,71,0.0,0.0,87,0.00,,,0.00,0,Wunderground v.1.15,2013-04-02 08:04:00,
2013-04-02 03:10:00,65.5,61.5,29.93,ENE,77,0.0,0.0,87,0.00,,,0.00,0,Wunderground v.1.15,2013-04-02 08:10:00,
2013-04-02 03:16:00,65.5,61.5,29.93,NE,49,0.0,2.0,87,0.00,,,0.00,0,Wunderground v.1.15,2013-04-02 08:16:00,
2013-04-02 03:22:00,65.5,61.2,29.93,WNW,292,1.0,3.0,86,0.00,,,0.00,0,Wunderground v.1.15,2013-04-02 08:22:00,
2013-04-02 03:28:00,65.6,61.6,29.93,South,185,1.0,3.0,87,0.00,,,0.00,0,Wunderground v.1.15,2013-04-02 08:28:00,
2013-04-02 03:33:00,65.6,61.3,29.93,ENE,62,0.0,2.0,86,0.00,,,0.00,0,Wunderground v.1.15,2013-04-02 08:33:00,
2013-04-02 03:38:00,65.6,61.3,29.93,NE,54,1.0,2.0,86,0.00,,,0.00,0,Wunderground v.1.15,2013-04-02 08:38:00,
2013-04-02 03:44:00,65.6,61.3,29.93,East,95,1.0,3.0,86,0.00,,,0.00,0,Wunderground v.1.15,2013-04-02 08:44:00,
2013-04-02 03:49:00,65.6,61.6,29.93,ESE,104,1.0,3.0,87,0.00,,,0.00,0,Wunderground v.1.15,2013-04-02 08:49:00,
2013-04-02 03:55:00,65.5,61.5,29.92,East,96,1.0,3.0,87,0.00,,,0.00,0,Wunderground v.1.15,2013-04-02 08:55:00,
2013-04-02 04:02:00,65.4,61.4,29.92,ENE,78,1.0,1.0,87,0.00,,,0.00,0,Wunderground v.1.15,2013-04-02 09:02:00,
2013-04-02 04:07:00,65.3,61.3,29.93,East,85,1.0,1.0,87,0.00,,,0.00,0,Wunderground v.1.15,2013-04-02 09:07:00,
2013-04-02 04:13:00,65.1,61.1,29.93,East,85,0.0,0.0,87,0.00,,,0.00,0,Wunderground v.1.15,2013-04-02 09:13:00,
2013-04-02 04:18:00,65.1,61.1,29.93,ENE,75,0.0,1.0,87,0.00,,,0.00,0,Wunderground v.1.15,2013-04-02 09:18:00,
2013-04-02 04:24:00,65.0,61.0,29.92,ENE,75,0.0,0.0,87,0.00,,,0.00,0,Wunderground v.1.15,2013-04-02 09:24:00,
2013-04-02 04:29:00,64.9,60.9,29.92,ENE,75,0.0,0.0,87,0.00,,,0.00,0,Wunderground v.1.15,2013-04-02 09:29:00,
2013-04-02 04:34:00,64.8,61.2,29.92,East,101,0.0,0.0,88,0.00,,,0.00,0,Wunderground v.1.15,2013-04-02 09:34:00,
2013-04-02 04:39:00,64.7,61.1,29.92,East,101,0.0,0.0,88,0.00,,,0.00,0,Wunderground v.1.15,2013-04-02 09:39:00,
2013-04-02 04:44:00,64.7,61.1,29.93,East,101,0.0,0.0,88,0.00,,,0.00,0,Wunderground v.1.15,2013-04-02 09:44:00,
2013-04-02 04:50:00,64.6,61.0,29.93,East,101,0.0,0.0,88,0.00,,,0.00,0,Wunderground v.1.15,2013-04-02 09:50:00,
2013-04-02 04:56:00,64.6,61.0,29.93,ESE,103,0.0,0.0,88,0.00,,,0.00,0,Wunderground v.1.15,2013-04-02 09:56:00,
2013-04-02 05:01:00,64.6,61.0,29.93,ESE,103,0.0,0.0,88,0.00,,,0.00,0,Wunderground v.1.15,2013-04-02 10:01:00,
2013-04-02 05:07:00,64.5,61.2,29.93,ESE,103,0.0,0.0,89,0.00,,,0.00,0,Wunderground v.1.15,2013-04-02 10:07:00,
2013-04-02 05:12:00,64.4,60.8,29.92,ENE,78,0.0,0.0,88,0.00,,,0.00,0,Wunderground v.1.15,2013-04-02 10:12:00,
2013-04-02 05:18:00,64.3,61.0,29.93,ENE,78,0.0,0.0,89,0.00,,,0.00,0,Wunderground v.1.15,2013-04-02 10:18:00,
2013-04-02 05:23:00,64.2,60.9,29.93,ENE,78,0.0,0.0,89,0.00,,,0.00,0,Wunderground v.1.15,2013-04-02 10:23:00,
2013-04-02 05:29:00,64.1,60.8,29.94,ENE,78,0.0,0.0,89,0.00,,,0.00,0,Wunderground v.1.15,2013-04-02 10:29:00,
2013-04-02 05:34:00,64.0,61.0,29.94,ENE,78,0.0,0.0,90,0.00,,,0.00,0,Wunderground v.1.15,2013-04-02 10:34:00,
2013-04-02 05:39:00,64.0,61.0,29.94,ENE,78,0.0,0.0,90,0.00,,,0.00,0,Wunderground v.1.15,2013-04-02 10:39:00,
2013-04-02 05:44:00,64.0,61.0,29.94,ENE,78,0.0,0.0,90,0.00,,,0.00,0,Wunderground v.1.15,2013-04-02 10:44:00,
2013-04-02 05:50:00,64.1,61.1,29.94,ENE,78,0.0,0.0,90,0.00,,,0.00,0,Wunderground v.1.15,2013-04-02 10:50:00,
2013-04-02 05:55:00,64.1,61.1,29.94,ENE,78,0.0,0.0,90,0.00,,,0.00,0,Wunderground v.1.15,2013-04-02 10:55:00,
2013-04-02 06:00:00,64.1,61.1,29.93,ENE,78,0.0,0.0,90,0.00,,,0.00,0,Wunderground v.1.15,2013-04-02 11:00:00,
2013-04-02 06:06:00,64.1,61.1,29.93,ENE,78,0.0,0.0,90,0.00,,,0.00,0,Wunderground v.1.15,2013-04-02 11:06:00,
2013-04-02 06:11:00,64.0,61.0,29.93,East,81,0.0,0.0,90,0.00,,,0.00,0,Wunderground v.1.15,2013-04-02 11:11:00,
2013-04-02 06:17:00,64.0,61.0,29.93,East,81,0.0,1.0,90,0.00,,,0.00,0,Wunderground v.1.15,2013-04-02 11:17:00,
2013-04-02 06:22:00,64.0,61.3,29.93,East,81,0.0,0.0,91,0.00,,,0.00,0,Wunderground v.1.15,2013-04-02 11:22:00,
2013-04-02 06:28:00,64.0,61.3,29.94,East,82,0.0,0.0,91,0.00,,,0.00,0,Wunderground v.1.15,2013-04-02 11:28:00,
2013-04-02 06:33:00,64.0,61.3,29.94,East,84,0.0,0.0,91,0.00,,,0.00,0,Wunderground v.1.15,2013-04-02 11:33:00,
2013-04-02 06:38:00,64.1,61.4,29.94,East,84,0.0,0.0,91,0.00,,,0.00,0,Wunderground v.1.15,2013-04-02 11:38:00,
2013-04-02 06:43:00,64.1,61.4,29.94,East,84,0.0,1.0,91,0.00,,,0.00,0,Wunderground v.1.15,2013-04-02 11:43:00,
2013-04-02 06:49:00,64.2,61.5,29.93,East,81,0.0,1.0,91,0.00,,,0.00,0,Wunderground v.1.15,2013-04-02 11:49:00,
2013-04-02 06:54:00,64.2,61.5,29.94,ENE,71,0.0,2.0,91,0.00,,,0.00,0,Wunderground v.1.15,2013-04-02 11:54:00,
2013-04-02 07:00:00,64.2,61.5,29.94,ENE,71,0.0,0.0,91,0.00,,,0.00,0,Wunderground v.1.15,2013-04-02 12:00:00,
2013-04-02 07:05:00,64.2,61.5,29.93,ENE,71,0.0,0.0,91,0.00,,,0.00,0,Wunderground v.1.15,2013-04-02 12:05:00,
2013-04-02 07:10:00,64.2,61.2,29.93,ENE,72,0.0,0.0,90,0.00,,,0.00,0,Wunderground v.1.15,2013-04-02 12:10:00,
2013-04-02 07:15:00,64.1,61.1,29.93,ENE,69,0.0,1.0,90,0.00,,,0.00,0,Wunderground v.1.15,2013-04-02 12:15:00,
2013-04-02 07:22:00,64.1,61.1,29.93,ESE,105,0.0,1.0,90,0.00,,,0.00,0,Wunderground v.1.15,2013-04-02 12:22:00,
2013-04-02 07:27:00,64.0,61.0,29.93,ESE,102,0.0,1.0,90,0.00,,,0.00,7,Wunderground v.1.15,2013-04-02 12:27:00,
2013-04-02 07:33:00,63.7,61.0,29.94,East,98,0.0,0.0,91,0.00,,,0.00,12,Wunderground v.1.15,2013-04-02 12:33:00,
2013-04-02 07:39:00,63.6,60.9,29.94,ESE,109,0.0,0.0,91,0.00,,,0.00,16,Wunderground v.1.15,2013-04-02 12:39:00,
2013-04-02 07:44:00,63.6,60.9,29.95,ESE,111,0.0,0.0,91,0.00,,,0.00,11,Wunderground v.1.15,2013-04-02 12:44:00,
2013-04-02 07:50:00,63.6,61.2,29.94,ESE,114,0.0,0.0,92,0.00,,,0.00,25,Wunderground v.1.15,2013-04-02 12:50:00,
2013-04-02 07:55:00,63.7,61.3,29.94,ESE,114,0.0,0.0,92,0.00,,,0.00,56,Wunderground v.1.15,2013-04-02 12:55:00,
2013-04-02 08:00:00,63.7,61.3,29.94,East,92,0.0,0.0,92,0.00,,,0.00,70,Wunderground v.1.15,2013-04-02 13:00:00,
2013-04-02 08:06:00,63.9,61.2,29.93,ESE,109,0.0,2.0,91,0.00,,,0.00,102,Wunderground v.1.15,2013-04-02 13:06:00,
2013-04-02 08:12:00,64.1,61.4,29.92,East,79,1.0,2.0,91,0.00,,,0.00,91,Wunderground v.1.15,2013-04-02 13:12:00,
2013-04-02 08:18:00,64.3,61.6,29.92,East,84,1.0,2.0,91,0.00,,,0.00,14,Wunderground v.1.15,2013-04-02 13:18:00,
2013-04-02 08:23:00,64.3,61.6,29.92,East,94,0.0,1.0,91,0.00,,,0.00,7,Wunderground v.1.15,2013-04-02 13:23:00,
2013-04-02 08:29:00,64.2,61.8,29.92,East,94,0.0,1.0,92,0.00,,,0.00,7,Wunderground v.1.15,2013-04-02 13:29:00,
2013-04-02 08:35:00,64.1,61.7,29.92,East,94,0.0,0.0,92,0.00,,,0.00,9,Wunderground v.1.15,2013-04-02 13:35:00,
2013-04-02 08:42:00,64.0,61.9,29.92,East,94,0.0,0.0,93,0.00,,,0.00,12,Wunderground v.1.15,2013-04-02 13:42:00,
2013-04-02 08:48:00,63.9,61.8,29.93,East,94,0.0,0.0,93,0.00,,,0.00,16,Wunderground v.1.15,2013-04-02 13:48:00,
2013-04-02 08:54:00,64.0,61.9,29.93,East,94,0.0,0.0,93,0.00,,,0.00,26,Wunderground v.1.15,2013-04-02 13:54:00,
2013-04-02 09:00:00,64.0,62.2,29.94,East,94,0.0,0.0,94,0.00,,,0.00,25,Wunderground v.1.15,2013-04-02 14:00:00,
2013-04-02 09:05:00,64.1,62.0,29.94,East,94,0.0,0.0,93,0.00,,,0.00,19,Wunderground v.1.15,2013-04-02 14:05:00,
2013-04-02 09:11:00,64.1,62.0,29.94,East,94,0.0,0.0,93,0.00,,,0.00,30,Wunderground v.1.15,2013-04-02 14:11:00,
2013-04-02 09:16:00,64.2,62.1,29.94,East,94,0.0,0.0,93,0.00,,,0.00,35,Wunderground v.1.15,2013-04-02 14:16:00,
2013-04-02 09:21:00,64.3,61.9,29.94,East,94,0.0,0.0,92,0.00,,,0.00,18,Wunderground v.1.15,2013-04-02 14:21:00,
2013-04-02 09:27:00,64.4,62.3,29.94,East,94,0.0,0.0,93,0.00,,,0.00,19,Wunderground v.1.15,2013-04-02 14:27:00,
2013-04-02 09:32:00,64.4,62.3,29.95,East,96,0.0,1.0,93,0.00,,,0.00,28,Wunderground v.1.15,2013-04-02 14:32:00,
2013-04-02 09:38:00,64.5,62.7,29.95,East,96,0.0,1.0,94,0.00,,,0.00,19,Wunderground v.1.15,2013-04-02 14:38:00,
2013-04-02 09:43:00,64.4,62.3,29.95,East,96,0.0,0.0,93,0.00,,,0.00,23,Wunderground v.1.15,2013-04-02 14:43:00,
2013-04-02 09:49:00,64.5,62.4,29.95,East,96,0.0,0.0,93,0.00,,,0.00,28,Wunderground v.1.15,2013-04-02 14:49:00,
2013-04-02 09:55:00,64.5,62.4,29.95,East,96,0.0,0.0,93,0.00,,,0.00,63,Wunderground v.1.15,2013-04-02 14:55:00,
2013-04-02 10:00:00,64.5,62.7,29.95,East,96,0.0,0.0,94,0.00,,,0.00,62,Wunderground v.1.15,2013-04-02 15:00:00,
2013-04-02 10:07:00,64.7,62.9,29.96,East,95,0.0,0.0,94,0.00,,,0.01,70,Wunderground v.1.15,2013-04-02 15:07:00,
2013-04-02 10:13:00,64.9,63.1,29.95,East,95,0.0,0.0,94,0.00,,,0.01,91,Wunderground v.1.15,2013-04-02 15:13:00,
2013-04-02 10:19:00,65.2,63.7,29.95,East,95,0.0,0.0,95,0.00,,,0.01,109,Wunderground v.1.15,2013-04-02 15:19:00,
2013-04-02 10:24:00,65.4,63.6,29.95,East,95,0.0,1.0,94,0.00,,,0.01,84,Wunderground v.1.15,2013-04-02 15:24:00,
2013-04-02 10:29:00,65.6,63.5,29.95,East,95,0.0,1.0,93,0.00,,,0.01,98,Wunderground v.1.15,2013-04-02 15:29:00,
2013-04-02 10:36:00,65.8,63.4,29.96,East,95,0.0,0.0,92,0.00,,,0.01,72,Wunderground v.1.15,2013-04-02 15:36:00,
2013-04-02 10:43:00,66.1,63.7,29.96,East,95,0.0,0.0,92,0.00,,,0.01,153,Wunderground v.1.15,2013-04-02 15:43:00,
2013-04-02 10:49:00,66.4,64.0,29.96,ENE,73,0.0,0.0,92,0.00,,,0.01,190,Wunderground v.1.15,2013-04-02 15:49:00,
2013-04-02 10:54:00,66.7,64.0,29.96,ENE,73,0.0,0.0,91,0.00,,,0.01,239,Wunderground v.1.15,2013-04-02 15:54:00,
2013-04-02 10:59:00,67.2,64.2,29.95,ENE,73,0.0,2.0,90,0.00,,,0.01,315,Wunderground v.1.15,2013-04-02 15:59:00,
2013-04-02 11:04:00,67.7,64.3,29.96,ESE,120,0.0,2.0,89,0.00,,,0.01,163,Wunderground v.1.15,2013-04-02 16:04:00,
2013-04-02 11:09:00,68.0,64.3,29.95,ENE,74,0.0,2.0,88,0.00,,,0.01,209,Wunderground v.1.15,2013-04-02 16:09:00,
2013-04-02 11:15:00,68.3,64.3,29.95,East,89,0.0,1.0,87,0.00,,,0.01,178,Wunderground v.1.15,2013-04-02 16:15:00,
2013-04-02 11:21:00,68.3,63.9,29.95,ENE,65,0.0,1.0,86,0.00,,,0.01,199,Wunderground v.1.15,2013-04-02 16:21:00,
2013-04-02 11:27:00,68.6,64.2,29.95,ESE,108,0.0,3.0,86,0.00,,,0.01,302,Wunderground v.1.15,2013-04-02 16:27:00,
2013-04-02 11:32:00,69.0,64.3,29.94,East,93,1.0,2.0,85,0.00,,,0.01,313,Wunderground v.1.15,2013-04-02 16:32:00,
2013-04-02 11:38:00,69.9,64.8,29.94,South,173,1.0,2.0,84,0.00,,,0.01,438,Wunderground v.1.15,2013-04-02 16:38:00,
2013-04-02 11:43:00,70.8,64.7,29.94,ENE,71,0.0,3.0,81,0.00,,,0.01,316,Wunderground v.1.15,2013-04-02 16:43:00,
2013-04-02 11:49:00,71.0,64.2,29.94,South,187,1.0,3.0,79,0.00,,,0.01,294,Wunderground v.1.15,2013-04-02 16:49:00,
2013-04-02 11:55:00,71.2,64.0,29.94,ESE,102,1.0,5.0,78,0.00,,,0.01,390,Wunderground v.1.15,2013-04-02 16:55:00,
2013-04-02 12:00:00,71.7,64.5,29.94,SSW,197,1.0,2.0,78,0.00,,,0.01,316,Wunderground v.1.15,2013-04-02 17:00:00,
2013-04-02 12:06:00,72.0,64.4,29.94,South,188,1.0,2.0,77,0.00,,,0.01,322,Wunderground v.1.15,2013-04-02 17:06:00,
2013-04-02 12:11:00,71.9,64.3,29.94,ESE,109,1.0,2.0,77,0.00,,,0.01,360,Wunderground v.1.15,2013-04-02 17:11:00,
2013-04-02 12:16:00,71.8,64.2,29.94,ENE,66,1.0,3.0,77,0.00,,,0.01,355,Wunderground v.1.15,2013-04-02 17:16:00,
2013-04-02 12:22:00,71.9,63.9,29.94,ENE,71,1.0,1.0,76,0.00,,,0.01,543,Wunderground v.1.15,2013-04-02 17:22:00,
2013-04-02 12:28:00,72.6,64.6,29.93,WSW,258,1.0,2.0,76,0.00,,,0.01,612,Wunderground v.1.15,2013-04-02 17:28:00,
2013-04-02 12:33:00,72.6,64.2,29.93,WSW,257,1.0,2.0,75,0.00,,,0.01,306,Wunderground v.1.15,2013-04-02 17:33:00,
2013-04-02 12:39:00,72.4,64.0,29.93,NE,49,1.0,2.0,75,0.00,,,0.01,188,Wunderground v.1.15,2013-04-02 17:39:00,
2013-04-02 12:45:00,72.0,63.6,29.93,SSE,147,1.0,4.0,75,0.00,,,0.01,192,Wunderground v.1.15,2013-04-02 17:45:00,
2013-04-02 12:52:00,72.1,64.1,29.92,SSW,204,1.0,2.0,76,0.00,,,0.01,459,Wunderground v.1.15,2013-04-02 17:52:00,
2013-04-02 12:57:00,73.1,64.7,29.92,ENE,76,1.0,4.0,75,0.00,,,0.01,592,Wunderground v.1.15,2013-04-02 17:57:00,
2013-04-02 13:03:00,73.9,64.7,29.91,SSW,199,2.0,3.0,73,0.00,,,0.01,329,Wunderground v.1.15,2013-04-02 18:03:00,
2013-04-02 13:09:00,73.8,64.6,29.91,East,80,2.0,5.0,73,0.00,,,0.01,492,Wunderground v.1.15,2013-04-02 18:09:00,
2013-04-02 13:14:00,74.4,64.8,29.91,East,86,2.0,3.0,72,0.00,,,0.01,1063,Wunderground v.1.15,2013-04-02 18:14:00,
2013-04-02 13:20:00,74.2,64.6,29.92,East,83,1.0,1.0,72,0.00,,,0.01,251,Wunderground v.1.15,2013-04-02 18:20:00,
2013-04-02 13:26:00,73.6,64.4,29.92,NE,52,2.0,5.0,73,0.00,,,0.01,190,Wunderground v.1.15,2013-04-02 18:26:00,
2013-04-02 13:31:00,72.9,64.5,29.92,East,80,2.0,2.0,75,0.00,,,0.01,127,Wunderground v.1.15,2013-04-02 18:31:00,
2013-04-02 13:37:00,72.4,64.0,29.92,ENE,67,1.0,4.0,75,0.00,,,0.01,308,Wunderground v.1.15,2013-04-02 18:37:00,
2013-04-02 13:42:00,72.5,64.5,29.91,East,83,2.0,3.0,76,0.00,,,0.01,258,Wunderground v.1.15,2013-04-02 18:42:00,
2013-04-02 13:48:00,73.1,64.7,29.91,SE,130,2.0,6.0,75,0.00,,,0.01,357,Wunderground v.1.15,2013-04-02 18:48:00,
2013-04-02 13:54:00,73.9,64.7,29.90,ESE,105,2.0,3.0,73,0.00,,,0.01,415,Wunderground v.1.15,2013-04-02 18:54:00,
2013-04-02 14:00:00,74.1,64.5,29.90,ENE,72,3.0,3.0,72,0.00,,,0.01,519,Wunderground v.1.15,2013-04-02 19:00:00,
2013-04-02 14:07:00,74.0,64.4,29.90,ENE,66,3.0,5.0,72,0.00,,,0.01,223,Wunderground v.1.15,2013-04-02 19:07:00,
2013-04-02 14:13:00,73.3,64.1,29.89,ENE,68,4.0,4.0,73,0.00,,,0.01,265,Wunderground v.1.15,2013-04-02 19:13:00,
2013-04-02 14:18:00,73.1,63.9,29.89,NE,51,4.0,4.0,73,0.00,,,0.01,332,Wunderground v.1.15,2013-04-02 19:18:00,
2013-04-02 14:24:00,73.3,64.5,29.88,East,80,4.0,10.0,74,0.00,,,0.01,396,Wunderground v.1.15,2013-04-02 19:24:00,
2013-04-02 14:29:00,73.8,64.6,29.88,ENE,76,4.0,10.0,73,0.00,,,0.01,385,Wunderground v.1.15,2013-04-02 19:29:00,
2013-04-02 14:35:00,74.0,64.4,29.88,East,81,3.0,4.0,72,0.00,,,0.01,264,Wunderground v.1.15,2013-04-02 19:35:00,
2013-04-02 14:41:00,73.7,64.1,29.88,SE,142,3.0,4.0,72,0.00,,,0.01,218,Wunderground v.1.15,2013-04-02 19:41:00,
2013-04-02 14:47:00,73.1,63.9,29.88,ENE,67,4.0,7.0,73,0.00,,,0.01,162,Wunderground v.1.15,2013-04-02 19:47:00,
2013-04-02 14:53:00,72.8,64.0,29.86,East,89,3.0,6.0,74,0.00,,,0.01,98,Wunderground v.1.15,2013-04-02 19:53:00,
2013-04-02 14:59:00,72.6,63.8,29.86,ENE,66,3.0,6.0,74,0.00,,,0.01,67,Wunderground v.1.15,2013-04-02 19:59:00,
2013-04-02 15:04:00,72.4,63.6,29.87,ENE,76,2.0,3.0,74,0.00,,,0.01,62,Wunderground v.1.15,2013-04-02 20:04:00,
2013-04-02 15:10:00,72.1,63.7,29.86,ENE,61,3.0,5.0,75,0.00,,,0.01,58,Wunderground v.1.15,2013-04-02 20:10:00,
2013-04-02 15:15:00,71.8,63.8,29.86,ENE,69,3.0,5.0,76,0.00,,,0.01,42,Wunderground v.1.15,2013-04-02 20:15:00,
2013-04-02 15:20:00,71.6,63.6,29.85,East,90,3.0,3.0,76,0.00,,,0.01,44,Wunderground v.1.15,2013-04-02 20:20:00,
2013-04-02 15:27:00,71.5,63.5,29.85,East,84,3.0,7.0,76,0.00,,,0.01,18,Wunderground v.1.15,2013-04-02 20:27:00,
2013-04-02 15:32:00,71.4,63.4,29.85,East,86,3.0,3.0,76,0.00,,,0.01,23,Wunderground v.1.15,2013-04-02 20:32:00,
2013-04-02 15:38:00,71.3,63.7,29.86,ENE,74,3.0,5.0,77,0.00,,,0.01,12,Wunderground v.1.15,2013-04-02 20:38:00,
2013-04-02 15:44:00,70.9,64.4,29.85,East,96,3.0,5.0,80,0.00,,,0.01,12,Wunderground v.1.15,2013-04-02 20:44:00,
2013-04-02 15:49:00,70.1,64.3,29.85,ENE,64,3.0,7.0,82,0.00,,,0.01,5,Wunderground v.1.15,2013-04-02 20:49:00,
2013-04-02 15:55:00,69.0,65.0,29.85,ENE,75,3.0,6.0,87,0.16,,,0.03,0,Wunderground v.1.15,2013-04-02 20:55:00,
2013-04-02 16:03:00,67.6,64.9,29.84,ENE,67,2.0,3.0,91,0.80,,,0.11,5,Wunderground v.1.15,2013-04-02 21:03:00,
2013-04-02 16:09:00,66.9,64.5,29.85,East,80,2.0,3.0,92,0.21,,,0.13,5,Wunderground v.1.15,2013-04-02 21:09:00,
2013-04-02 16:14:00,66.5,64.4,29.85,East,90,1.0,3.0,93,0.32,,,0.16,11,Wunderground v.1.15,2013-04-02 21:14:00,
2013-04-02 16:19:00,66.2,64.1,29.84,East,92,3.0,8.0,93,2.43,,,0.28,28,Wunderground v.1.15,2013-04-02 21:19:00,
2013-04-02 16:25:00,65.7,63.9,29.82,NE,46,4.0,7.0,94,1.11,,,0.47,37,Wunderground v.1.15,2013-04-02 21:25:00,
2013-04-02 16:30:00,65.5,64.0,29.82,SSE,149,5.0,7.0,95,0.32,,,0.52,39,Wunderground v.1.15,2013-04-02 21:30:00,
2013-04-02 16:36:00,65.3,63.8,29.83,East,88,5.0,7.0,95,0.22,,,0.54,39,Wunderground v.1.15,2013-04-02 21:36:00,
2013-04-02 16:42:00,65.2,63.7,29.83,ENE,74,4.0,7.0,95,0.09,,,0.54,21,Wunderground v.1.15,2013-04-02 21:42:00,
2013-04-02 16:48:00,65.2,63.7,29.83,ESE,104,4.0,7.0,95,0.05,,,0.54,11,Wunderground v.1.15,2013-04-02 21:48:00,
2013-04-02 16:53:00,65.1,63.9,29.83,East,90,2.0,3.0,96,0.00,,,0.54,9,Wunderground v.1.15,2013-04-02 21:53:00,
2013-04-02 16:59:00,65.0,63.8,29.83,East,89,2.0,6.0,96,0.00,,,0.54,9,Wunderground v.1.15,2013-04-02 21:59:00,
2013-04-02 17:04:00,65.0,63.8,29.85,East,96,2.0,2.0,96,0.00,,,0.54,5,Wunderground v.1.15,2013-04-02 22:04:00,
2013-04-02 17:10:00,65.0,63.8,29.87,East,96,0.0,0.0,96,0.00,,,0.54,0,Wunderground v.1.15,2013-04-02 22:10:00,
2013-04-02 17:17:00,65.0,63.8,29.86,East,86,0.0,1.0,96,0.00,,,0.54,0,Wunderground v.1.15,2013-04-02 22:17:00,
2013-04-02 17:23:00,65.0,64.1,29.85,ENE,72,0.0,1.0,97,0.00,,,0.54,7,Wunderground v.1.15,2013-04-02 22:23:00,
2013-04-02 17:29:00,65.0,63.8,29.84,East,85,0.0,2.0,96,0.00,,,0.55,7,Wunderground v.1.15,2013-04-02 22:29:00,
2013-04-02 17:35:00,65.0,64.1,29.83,East,92,0.0,1.0,97,0.07,,,0.56,5,Wunderground v.1.15,2013-04-02 22:35:00,
2013-04-02 17:42:00,64.9,64.0,29.81,ENE,72,2.0,5.0,97,0.06,,,0.56,7,Wunderground v.1.15,2013-04-02 22:42:00,
2013-04-02 17:48:00,64.9,64.0,29.81,ENE,73,4.0,5.0,97,0.04,,,0.56,7,Wunderground v.1.15,2013-04-02 22:48:00,
2013-04-02 17:53:00,64.8,63.6,29.80,East,93,4.0,7.0,96,0.00,,,0.57,5,Wunderground v.1.15,2013-04-02 22:53:00,
2013-04-02 17:59:00,64.7,63.5,29.79,ENE,68,4.0,7.0,96,0.00,,,0.57,5,Wunderground v.1.15,2013-04-02 22:59:00,
2013-04-02 18:04:00,64.7,63.5,29.79,East,84,4.0,12.0,96,0.00,,,0.57,0,Wunderground v.1.15,2013-04-02 23:04:00,
2013-04-02 18:09:00,64.6,63.4,29.80,East,92,3.0,12.0,96,0.00,,,0.57,5,Wunderground v.1.15,2013-04-02 23:09:00,
2013-04-02 18:15:00,64.6,63.4,29.81,East,88,2.0,6.0,96,0.00,,,0.58,7,Wunderground v.1.15,2013-04-02 23:15:00,
2013-04-02 18:20:00,64.5,63.6,29.80,ESE,103,1.0,2.0,97,0.00,,,0.58,9,Wunderground v.1.15,2013-04-02 23:20:00,
2013-04-02 18:27:00,64.4,63.2,29.78,ENE,74,2.0,3.0,96,0.00,,,0.58,11,Wunderground v.1.15,2013-04-02 23:27:00,
2013-04-02 18:34:00,64.3,63.4,29.81,NE,46,1.0,2.0,97,0.00,,,0.58,7,Wunderground v.1.15,2013-04-02 23:34:00,
2013-04-02 18:40:00,64.4,63.5,29.82,NE,46,0.0,0.0,97,0.00,,,0.58,0,Wunderground v.1.15,2013-04-02 23:40:00,
2013-04-02 18:45:00,64.4,63.5,29.82,West,265,0.0,0.0,97,0.00,,,0.58,7,Wunderground v.1.15,2013-04-02 23:45:00,
2013-04-02 18:51:00,64.4,63.5,29.82,West,259,0.0,0.0,97,0.00,,,0.58,11,Wunderground v.1.15,2013-04-02 23:51:00,
2013-04-02 18:57:00,64.4,63.2,29.83,ENE,61,0.0,0.0,96,0.00,,,0.58,11,Wunderground v.1.15,2013-04-02 23:57:00,
2013-04-02 19:02:00,64.2,63.0,29.83,East,98,0.0,1.0,96,0.00,,,0.58,12,Wunderground v.1.15,2013-04-03 00:02:00,
2013-04-02 19:08:00,64.1,62.9,29.84,East,98,0.0,1.0,96,0.00,,,0.58,7,Wunderground v.1.15,2013-04-03 00:08:00,
2013-04-02 19:14:00,64.0,62.8,29.83,East,98,0.0,0.0,96,0.00,,,0.58,5,Wunderground v.1.15,2013-04-03 00:14:00,
2013-04-02 19:20:00,64.0,62.8,29.82,East,98,0.0,0.0,96,0.00,,,0.58,7,Wunderground v.1.15,2013-04-03 00:20:00,
2013-04-02 19:25:00,63.8,62.9,29.83,East,98,0.0,0.0,97,0.00,,,0.58,11,Wunderground v.1.15,2013-04-03 00:25:00,
2013-04-02 19:31:00,63.8,62.9,29.83,ENE,74,0.0,0.0,97,0.00,,,0.58,12,Wunderground v.1.15,2013-04-03 00:31:00,
2013-04-02 19:37:00,63.6,62.4,29.82,ENE,74,0.0,3.0,96,0.00,,,0.58,9,Wunderground v.1.15,2013-04-03 00:37:00,
2013-04-02 19:43:00,63.2,61.7,29.82,ENE,74,0.0,0.0,95,0.00,,,0.58,5,Wunderground v.1.15,2013-04-03 00:43:00,
2013-04-02 19:48:00,62.9,61.4,29.83,ENE,74,0.0,0.0,95,0.00,,,0.58,0,Wunderground v.1.15,2013-04-03 00:48:00,
2013-04-02 19:54:00,62.7,61.2,29.83,ENE,74,0.0,0.0,95,0.00,,,0.58,0,Wunderground v.1.15,2013-04-03 00:54:00,
2013-04-02 20:00:00,62.4,60.9,29.83,ENE,74,0.0,0.0,95,0.00,,,0.58,0,Wunderground v.1.15,2013-04-03 01:00:00,
2013-04-02 20:05:00,62.2,61.0,29.84,ENE,74,0.0,0.0,96,0.00,,,0.58,0,Wunderground v.1.15,2013-04-03 01:05:00,
2013-04-02 20:10:00,62.1,60.9,29.83,ENE,74,0.0,0.0,96,0.00,,,0.58,0,Wunderground v.1.15,2013-04-03 01:10:00,
2013-04-02 20:16:00,61.9,60.7,29.84,ENE,74,0.0,0.0,96,0.00,,,0.58,0,Wunderground v.1.15,2013-04-03 01:16:00,
2013-04-02 20:22:00,61.7,60.5,29.84,ENE,74,0.0,0.0,96,0.00,,,0.58,0,Wunderground v.1.15,2013-04-03 01:22:00,
2013-04-02 20:28:00,61.5,60.3,29.84,ENE,74,0.0,0.0,96,0.00,,,0.58,0,Wunderground v.1.15,2013-04-03 01:28:00,
2013-04-02 20:34:00,61.3,60.4,29.84,ENE,74,0.0,0.0,97,0.00,,,0.58,0,Wunderground v.1.15,2013-04-03 01:34:00,
2013-04-02 20:40:00,61.2,60.3,29.84,ENE,74,0.0,0.0,97,0.00,,,0.58,0,Wunderground v.1.15,2013-04-03 01:40:00,
2013-04-02 20:45:00,61.0,60.1,29.84,ENE,74,0.0,0.0,97,0.00,,,0.58,0,Wunderground v.1.15,2013-04-03 01:45:00,
2013-04-02 20:50:00,60.9,60.0,29.85,ENE,74,0.0,0.0,97,0.00,,,0.58,0,Wunderground v.1.15,2013-04-03 01:50:00,
2013-04-02 20:55:00,60.8,59.9,29.85,ENE,74,0.0,0.0,97,0.00,,,0.58,0,Wunderground v.1.15,2013-04-03 01:55:00,
2013-04-02 21:01:00,60.7,59.8,29.85,ENE,74,0.0,0.0,97,0.00,,,0.58,0,Wunderground v.1.15,2013-04-03 02:01:00,
2013-04-02 21:09:00,60.6,59.7,29.84,ENE,74,0.0,0.0,97,0.00,,,0.58,0,Wunderground v.1.15,2013-04-03 02:09:00,
2013-04-02 21:14:00,60.5,59.6,29.84,ENE,74,0.0,0.0,97,0.00,,,0.58,0,Wunderground v.1.15,2013-04-03 02:14:00,
2013-04-02 21:19:00,60.4,59.5,29.84,ENE,74,0.0,0.0,97,0.00,,,0.58,0,Wunderground v.1.15,2013-04-03 02:19:00,
2013-04-02 21:24:00,60.2,59.3,29.84,ENE,74,0.0,0.0,97,0.00,,,0.58,0,Wunderground v.1.15,2013-04-03 02:24:00,
2013-04-02 21:29:00,60.1,59.5,29.84,ENE,74,0.0,0.0,98,0.00,,,0.58,0,Wunderground v.1.15,2013-04-03 02:29:00,
2013-04-02 21:35:00,60.2,59.6,29.85,ENE,74,0.0,0.0,98,0.00,,,0.58,0,Wunderground v.1.15,2013-04-03 02:35:00,
2013-04-02 21:40:00,60.2,59.6,29.85,ENE,74,0.0,0.0,98,0.00,,,0.58,0,Wunderground v.1.15,2013-04-03 02:40:00,
2013-04-02 21:47:00,60.2,59.6,29.85,ENE,74,0.0,0.0,98,0.00,,,0.58,0,Wunderground v.1.15,2013-04-03 02:47:00,
2013-04-02 21:52:00,60.1,59.5,29.85,ENE,74,0.0,0.0,98,0.00,,,0.58,0,Wunderground v.1.15,2013-04-03 02:52:00,
2013-04-02 21:58:00,60.0,59.4,29.85,ENE,74,0.0,0.0,98,0.00,,,0.58,0,Wunderground v.1.15,2013-04-03 02:58:00,
2013-04-02 22:04:00,59.8,59.2,29.85,ENE,74,0.0,0.0,98,0.00,,,0.58,0,Wunderground v.1.15,2013-04-03 03:04:00,
2013-04-02 22:09:00,59.7,59.1,29.85,ENE,74,0.0,0.0,98,0.00,,,0.58,0,Wunderground v.1.15,2013-04-03 03:09:00,
2013-04-02 22:14:00,59.6,59.0,29.86,ENE,74,0.0,0.0,98,0.00,,,0.58,0,Wunderground v.1.15,2013-04-03 03:14:00,
2013-04-02 22:19:00,59.5,58.9,29.86,ENE,74,0.0,0.0,98,0.00,,,0.58,0,Wunderground v.1.15,2013-04-03 03:19:00,
2013-04-02 22:24:00,59.5,58.9,29.86,ENE,74,0.0,0.0,98,0.00,,,0.58,0,Wunderground v.1.15,2013-04-03 03:24:00,
2013-04-02 22:30:00,59.5,58.9,29.87,ENE,74,0.0,0.0,98,0.00,,,0.58,0,Wunderground v.1.15,2013-04-03 03:30:00,
2013-04-02 22:35:00,59.6,59.0,29.87,ENE,74,0.0,0.0,98,0.00,,,0.58,0,Wunderground v.1.15,2013-04-03 03:35:00,
2013-04-02 22:40:00,59.6,59.0,29.87,ENE,74,0.0,0.0,98,0.00,,,0.58,0,Wunderground v.1.15,2013-04-03 03:40:00,
2013-04-02 22:46:00,59.5,58.9,29.87,ENE,74,0.0,0.0,98,0.00,,,0.58,0,Wunderground v.1.15,2013-04-03 03:46:00,
2013-04-02 22:51:00,59.5,58.9,29.87,ENE,74,0.0,0.0,98,0.00,,,0.58,0,Wunderground v.1.15,2013-04-03 03:51:00,
2013-04-02 22:57:00,59.5,58.9,29.87,ENE,74,0.0,0.0,98,0.00,,,0.58,0,Wunderground v.1.15,2013-04-03 03:57:00,
2013-04-02 23:00:00,59.7,59.4,29.87,ENE,74,0.0,0.0,99,0.00,,,0.58,0,Wunderground v.1.15,2013-04-03 04:00:00,
2013-04-02 23:04:00,60.0,59.7,29.87,ENE,74,0.0,0.0,99,0.00,,,0.58,0,Wunderground v.1.15,2013-04-03 04:04:00,
2013-04-02 23:05:00,60.2,59.9,29.87,ENE,74,0.0,0.0,99,0.00,,,0.58,0,Wunderground v.1.15,2013-04-03 04:05:00,
2013-04-02 23:10:00,60.9,60.6,29.87,ENE,74,0.0,0.0,99,0.00,,,0.58,0,Wunderground v.1.15,2013-04-03 04:10:00,
2013-04-02 23:17:00,61.4,61.1,29.87,ENE,77,0.0,1.0,99,0.00,,,0.58,0,Wunderground v.1.15,2013-04-03 04:17:00,
2013-04-02 23:19:00,61.5,61.2,29.87,ENE,77,1.0,1.0,99,0.00,,,0.58,0,Wunderground v.1.15,2013-04-03 04:19:00,
2013-04-02 23:24:00,61.6,61.3,29.88,ENE,77,0.0,1.0,99,0.00,,,0.58,0,Wunderground v.1.15,2013-04-03 04:24:00,
2013-04-02 23:29:00,61.6,61.3,29.95,WSW,250,1.0,5.0,99,0.00,,,0.58,0,Wunderground v.1.15,2013-04-03 04:29:00,
2013-04-02 23:35:00,57.8,55.5,29.96,West,267,4.0,8.0,92,0.00,,,0.58,0,Wunderground v.1.15,2013-04-03 04:35:00,
2013-04-02 23:41:00,56.6,53.7,29.98,SW,229,5.0,6.0,90,0.00,,,0.59,0,Wunderground v.1.15,2013-04-03 04:41:00,
2013-04-02 23:47:00,53.6,51.3,29.99,SSW,213,4.0,6.0,92,0.71,,,0.66,0,Wunderground v.1.15,2013-04-03 04:47:00,
2013-04-02 23:53:00,52.1,50.4,29.98,West,267,3.0,4.0,94,0.65,,,0.73,0,Wunderground v.1.15,2013-04-03 04:53:00,
2013-04-02 23:59:00,51.4,50.0,29.98,ENE,65,2.0,4.0,95,0.19,,,0.77,0,Wunderground v.1.15,2013-04-03 04:59:00,